Saturna Island,

6:15 PM PDT on June 26, 2017 (GMT -0700)
Saturna Island

Weather History for CWEZ - February, 2013

Change the Weather History Date:

Tuesday, February 26, 2013

  Actual Average Record
Temperature  
Mean Temperature 42 °F -  
Max Temperature 45 °F - - ()
Min Temperature 39 °F - - ()
Degree Days  
Heating Degree Days 23    
Moisture  
Dew Point 35 °F    
Average Humidity 73    
Maximum Humidity 85    
Minimum Humidity 57    
Precipitation  
Precipitation 0.00 in - - ()
Sea Level Pressure  
Sea Level Pressure 30.23 in    
Wind  
Wind Speed 14 mph ()    
Max Wind Speed 30 mph    
Max Gust Speed 39 mph    
T = Trace of Precipitation, MM = Missing Value Source: Averaged Metar Reports

Daily Weather History Graph

Daily Weather History Graph

Search for Another Location

Airport or City:

Trip Planner

Search our weather history database for the weather conditions in past years. The results will help you decide how hot, cold, wet, or windy it might be!

Date:

Astronomy

Feb. 26, 2013 Rise Set
Actual Time 6:59 AM PST 5:51 PM PST
Civil Twilight 6:27 AM PST 6:23 PM PST
Nautical Twilight 5:50 AM PST 6:59 PM PST
Astronomical Twilight 5:14 AM PST 7:36 PM PST
Moon 7:26 PM PST (2/26) 6:55 AM PST (2/26)
Length of Visible Light 11h 56m
Length of Day
10h 52m
Full, 99% of the Moon is Illuminated
Feb 26
Full
Mar 4
Last Quarter
Mar 11
New
Mar 19
First Quarter
Mar 27
Full

Hourly Weather History & Observations

Time (PST) Temp. Windchill Dew Point Humidity Pressure Visibility Wind Dir Wind Speed Gust Speed Precip Events Conditions
12:00 AM 41.9 °F 36.9 °F 33.8 °F 73% 30.25 in - WSW 8.1 mph - N/A   Unknown
1:00 AM 40.8 °F 36.2 °F 33.6 °F 76% 30.26 in - WSW 6.9 mph - N/A   Unknown
2:00 AM 40.5 °F 34.1 °F 35.4 °F 82% 30.27 in - WSW 10.4 mph - N/A   Unknown
3:00 AM 40.6 °F 36.7 °F 34.9 °F 80% 30.27 in - WSW 5.8 mph - N/A   Unknown
4:00 AM 39 °F - 35 °F 80% 30.27 in - WSW 8.1 mph - -  
4:00 AM 39.4 °F 33.8 °F 35.1 °F 84% 30.27 in - WSW 8.1 mph - N/A   Unknown
5:00 AM 41.2 °F 33.4 °F 36.7 °F 84% 30.28 in - SW 15.0 mph - N/A   Unknown
6:00 AM 42.4 °F 33.5 °F 36.3 °F 79% 30.29 in - SSW 20.7 mph - N/A   Unknown
7:00 AM 41.5 °F 32.1 °F 36.1 °F 81% 30.29 in - SSW 21.9 mph - N/A   Unknown
8:00 AM 41.5 °F 33.2 °F 35.8 °F 80% 30.31 in - SSW 17.3 mph - N/A   Unknown
9:00 AM 42.1 °F 33.9 °F 34.5 °F 75% 30.31 in - South 17.3 mph - N/A   Unknown
10:00 AM 43 °F - 35 °F 64% 30.30 in - South 16.1 mph - -  
10:00 AM 43.0 °F 35.4 °F 34.9 °F 73% 30.30 in - South 16.1 mph - N/A   Unknown
11:00 AM 43.0 °F 34.5 °F 35.4 °F 75% 30.28 in - South 19.6 mph - N/A   Unknown
12:00 PM 43.7 °F 36.3 °F 36.0 °F 74% 30.26 in - South 16.1 mph - N/A   Unknown
1:00 PM 44.2 °F 36.7 °F 35.4 °F 71% 30.25 in - South 17.3 mph - N/A   Unknown
2:00 PM 44.8 °F 37.1 °F 34.7 °F 68% 30.22 in - South 18.4 mph - N/A   Unknown
3:00 PM 45.1 °F 38.1 °F 34.5 °F 66% 30.21 in - South 16.1 mph - N/A   Unknown
4:00 PM 45 °F - 35 °F 57% 30.18 in - South 24.2 mph - -  
4:00 PM 45.0 °F 36.2 °F 34.7 °F 67% 30.18 in - South 24.2 mph - N/A   Unknown
5:00 PM 45.3 °F 37.3 °F 34.2 °F 65% 30.17 in - South 20.7 mph - N/A   Unknown
6:00 PM 45.7 °F 37.4 °F 32.9 °F 61% 30.15 in - South 23.0 mph 31.1 mph N/A   Unknown
7:00 PM 45.1 °F 36.6 °F 34.0 °F 65% 30.14 in - SSE 23.0 mph - N/A   Unknown
8:00 PM 45.5 °F 36.7 °F 35.4 °F 68% 30.13 in - South 25.3 mph - N/A   Unknown
9:00 PM 44.8 °F 35.5 °F 36.1 °F 72% 30.12 in - South 26.5 mph - N/A   Unknown
10:00 PM 43 °F - 37 °F 73% 30.12 in - South 26.5 mph - -  
10:00 PM 43.3 °F 33.6 °F 37.2 °F 79% 30.12 in - South 26.5 mph 33.4 mph N/A   Unknown
11:00 PM 42.8 °F 32.3 °F 38.7 °F 85% 30.15 in - SSW 29.9 mph 39.1 mph N/A   Unknown